Weather History for Athens, GA

Change the Weather History Date:

Tuesday, December 4, 2012

  Actual Average Record
Temperature  
Mean Temperature 65 °F 48 °F  
Max Temperature 74 °F 59 °F 75 °F (1956)
Min Temperature 55 °F 37 °F 20 °F (1979)
Degree Days  
Heating Degree Days 0 17  
Month to date heating degree days 20 67  
Since 1 July heating degree days 544 547  
Growing Degree Days 14 (Base 50)    
Moisture  
Dew Point 53 °F    
Average Humidity 73    
Maximum Humidity 93    
Minimum Humidity 53    
Precipitation  
Precipitation 0.00 in 0.13 in 2.67 in (1945)
Month to date precipitation 0.00 0.51  
Year to date precipitation 31.50 43.11  
Snow  
Snow 0.00 in 0.00 in 0.00 in (2001)
Month to date snowfall 0.0 0.0  
Since 1 July snowfall 0.0 0.0  
Snow Depth -    
Sea Level Pressure  
Sea Level Pressure 30.26 in    
Wind  
Wind Speed 3 mph (SW)    
Max Wind Speed 12 mph    
Max Gust Speed 17 mph    
Visibility 10 miles    
Events      
T = Trace of Precipitation, MM = Missing Value Source: NWS Daily Summary

Daily Weather History Graph

Daily Weather History Graph

Search for Another Location

Airport:

Trip Planner

Search our weather history database for the weather conditions in past years. The results will help you decide how hot, cold, wet, or windy it might be!

Date:

Astronomy

Dec. 04, 2012 Rise Set
Actual Time 7:23 AM EST 5:24 PM EST
Civil Twilight 6:55 AM EST 5:51 PM EST
Nautical Twilight 6:24 AM EST 6:22 PM EST
Astronomical Twilight 5:54 AM EST 6:52 PM EST
Moon 10:59 PM EST (12/4) 11:26 AM EST (12/4)
Length of Visible Light 10h 55m
Length of Day
10h 00m
Waning Gibbous, 69% of the Moon is Illuminated
Dec 4
Waning Gibbous
Dec 6
Last Quarter
Dec 13
New
Dec 20
First Quarter
Dec 28
Full

Hourly Weather History & Observations

Time (EST) Temp. Dew Point Humidity Pressure Visibility Wind Dir Wind Speed Gust Speed Precip Events Conditions
12:51 AM 60.1 °F 51.1 °F 72% 30.26 in 10.0 mi South 4.6 mph - N/A   Overcast
1:51 AM 59.0 °F 52.0 °F 78% 30.25 in 10.0 mi South 4.6 mph - N/A   Mostly Cloudy
2:51 AM 57.0 °F 51.1 °F 81% 30.27 in 10.0 mi Calm Calm - N/A   Mostly Cloudy
3:51 AM 57.0 °F 52.0 °F 83% 30.27 in 10.0 mi Calm Calm - N/A   Overcast
4:51 AM 55.9 °F 52.0 °F 87% 30.27 in 10.0 mi Calm Calm - N/A   Mostly Cloudy
5:51 AM 55.9 °F 53.1 °F 90% 30.28 in 10.0 mi Calm Calm - N/A   Overcast
6:51 AM 55.9 °F 54.0 °F 93% 30.30 in 9.0 mi Calm Calm - N/A   Overcast
7:32 AM 57.2 °F 53.6 °F 88% 30.32 in 9.0 mi Calm Calm - N/A   Overcast
7:51 AM 55.9 °F 54.0 °F 93% 30.32 in 7.0 mi Calm Calm - N/A   Overcast
8:51 AM 59.0 °F 55.0 °F 87% 30.33 in 8.0 mi Calm Calm - N/A   Mostly Cloudy
9:51 AM 64.4 °F 57.2 °F 77% 30.33 in 10.0 mi WSW 4.6 mph - N/A   Clear
10:51 AM 69.1 °F 57.9 °F 68% 30.32 in 10.0 mi SSW 9.2 mph - N/A   Clear
11:51 AM 71.1 °F 55.9 °F 59% 30.30 in 10.0 mi WSW 5.8 mph - N/A   Partly Cloudy
12:51 PM 71.1 °F 53.1 °F 53% 30.26 in 10.0 mi WSW 6.9 mph - N/A   Mostly Cloudy
1:51 PM 72.0 °F 54.0 °F 53% 30.23 in 10.0 mi SW 8.1 mph - N/A   Overcast
2:51 PM 70.0 °F 54.0 °F 57% 30.23 in 10.0 mi WSW 4.6 mph - N/A   Overcast
3:51 PM 70.0 °F 53.1 °F 55% 30.22 in 10.0 mi SSW 5.8 mph - N/A   Partly Cloudy
4:51 PM 70.0 °F 53.1 °F 55% 30.22 in 10.0 mi Variable 5.8 mph - N/A   Mostly Cloudy
5:51 PM 64.0 °F 52.0 °F 65% 30.22 in 10.0 mi Calm Calm - N/A   Clear
6:51 PM 63.0 °F 52.0 °F 67% 30.23 in 10.0 mi SSW 3.5 mph - N/A   Clear
7:51 PM 61.0 °F 52.0 °F 72% 30.24 in 10.0 mi Calm Calm - N/A   Clear
8:51 PM 61.0 °F 52.0 °F 72% 30.23 in 10.0 mi Calm Calm - N/A   Clear
9:51 PM 59.0 °F 52.0 °F 78% 30.23 in 10.0 mi Calm Calm - N/A   Clear
10:51 PM 59.0 °F 52.0 °F 78% 30.22 in 10.0 mi Calm Calm - N/A   Clear
11:51 PM 57.2 °F 51.8 °F 82% 30.22 in 10.0 mi Calm Calm - N/A   Clear